TimeCDT,TemperatureF,Dew PointF,Humidity,Sea Level PressureIn,VisibilityMPH,Wind Direction,Wind SpeedMPH,Gust SpeedMPH,PrecipitationIn,Events,Conditions,WindDirDegrees,DateUTC
12:15 AM,80.1,73.6,81,30.16,10.0,Calm,Calm,-,N/A,,Clear,0,2013-07-18 05:15:00
12:35 AM,79.2,74.3,85,30.16,10.0,Calm,Calm,-,N/A,,Clear,0,2013-07-18 05:35:00
12:55 AM,78.8,73.6,84,30.16,10.0,Calm,Calm,-,N/A,,Clear,0,2013-07-18 05:55:00
1:15 AM,78.8,73.2,83,30.16,10.0,Calm,Calm,-,N/A,,Clear,0,2013-07-18 06:15:00
1:35 AM,78.4,73.2,84,30.16,10.0,Calm,Calm,-,N/A,,Clear,0,2013-07-18 06:35:00
1:55 AM,78.4,73.0,83,30.16,10.0,Calm,Calm,-,N/A,,Clear,0,2013-07-18 06:55:00
2:15 AM,77.9,73.2,85,30.16,10.0,Calm,Calm,-,N/A,,Clear,0,2013-07-18 07:15:00
2:35 AM,77.9,73.0,85,30.16,10.0,Calm,Calm,-,N/A,,Clear,0,2013-07-18 07:35:00
2:55 AM,77.0,73.0,88,30.16,10.0,Calm,Calm,-,N/A,,Clear,0,2013-07-18 07:55:00
3:15 AM,77.2,73.2,88,30.15,10.0,Calm,Calm,-,N/A,,Clear,0,2013-07-18 08:15:00
3:35 AM,76.3,72.5,88,30.15,10.0,Calm,Calm,-,N/A,,Clear,0,2013-07-18 08:35:00
3:55 AM,76.5,72.9,89,30.14,10.0,Calm,Calm,-,N/A,,Clear,0,2013-07-18 08:55:00
4:15 AM,76.3,72.9,89,30.15,10.0,Calm,Calm,-,N/A,,Clear,0,2013-07-18 09:15:00
4:35 AM,76.1,72.7,89,30.14,10.0,Calm,Calm,-,N/A,,Clear,0,2013-07-18 09:35:00
4:55 AM,75.7,72.7,90,30.14,10.0,Calm,Calm,-,N/A,,Clear,0,2013-07-18 09:55:00
5:15 AM,75.6,72.5,90,30.13,10.0,Calm,Calm,-,N/A,,Clear,0,2013-07-18 10:15:00
5:35 AM,75.6,72.5,90,30.13,10.0,Calm,Calm,-,N/A,,Clear,0,2013-07-18 10:35:00
5:55 AM,75.6,72.5,90,30.14,10.0,Calm,Calm,-,N/A,,Clear,0,2013-07-18 10:55:00
6:15 AM,75.7,72.7,90,30.14,10.0,NNE,3.5,-,N/A,,Clear,20,2013-07-18 11:15:00
6:35 AM,75.7,72.7,90,30.14,10.0,Calm,Calm,-,N/A,,Clear,0,2013-07-18 11:35:00
6:55 AM,75.7,72.7,90,30.15,7.0,Calm,Calm,-,N/A,,Clear,0,2013-07-18 11:55:00
7:15 AM,76.1,72.9,90,30.15,10.0,Calm,Calm,-,N/A,,Clear,0,2013-07-18 12:15:00
7:35 AM,77.2,74.1,90,30.15,10.0,Calm,Calm,-,N/A,,Clear,0,2013-07-18 12:35:00
7:55 AM,78.1,74.3,88,30.15,10.0,Calm,Calm,-,N/A,,Clear,0,2013-07-18 12:55:00
8:15 AM,79.7,74.8,85,30.15,10.0,NE,4.6,-,N/A,,Clear,50,2013-07-18 13:15:00
8:35 AM,81.7,74.8,80,30.15,10.0,NE,4.6,-,N/A,,Clear,50,2013-07-18 13:35:00
8:55 AM,82.9,74.5,75,30.16,7.0,East,5.8,-,N/A,,Clear,90,2013-07-18 13:55:00
9:15 AM,84.4,74.5,72,30.16,10.0,ENE,5.8,-,N/A,,Clear,60,2013-07-18 14:15:00
9:35 AM,85.1,74.1,70,30.16,10.0,East,4.6,-,N/A,,Clear,90,2013-07-18 14:35:00
9:55 AM,86.5,73.8,66,30.16,10.0,East,3.5,-,N/A,,Clear,80,2013-07-18 14:55:00
10:15 AM,87.6,73.2,62,30.16,10.0,East,9.2,-,N/A,,Scattered Clouds,90,2013-07-18 15:15:00
10:35 AM,87.6,71.2,58,30.17,10.0,East,8.1,16.1,N/A,,Scattered Clouds,90,2013-07-18 15:35:00
10:55 AM,89.8,71.6,55,30.16,10.0,East,5.8,-,N/A,,Clear,100,2013-07-18 15:55:00
11:15 AM,90.5,69.4,50,30.16,10.0,East,6.9,-,N/A,,Clear,100,2013-07-18 16:15:00
11:35 AM,91.2,68.5,47,30.16,10.0,ESE,8.1,-,N/A,,Scattered Clouds,110,2013-07-18 16:35:00
11:55 AM,91.2,66.7,44,30.15,10.0,East,6.9,-,N/A,,Scattered Clouds,80,2013-07-18 16:55:00
12:15 PM,92.7,66.4,42,30.15,10.0,East,6.9,-,N/A,,Scattered Clouds,80,2013-07-18 17:15:00
12:35 PM,93.7,65.8,40,30.14,10.0,East,8.1,-,N/A,,Scattered Clouds,90,2013-07-18 17:35:00
12:55 PM,94.1,64.6,38,30.13,10.0,ESE,5.8,-,N/A,,Scattered Clouds,120,2013-07-18 17:55:00
1:15 PM,93.6,63.3,37,30.12,10.0,East,10.4,-,N/A,,Clear,100,2013-07-18 18:15:00
1:35 PM,95.5,61.7,32,30.12,10.0,East,5.8,-,N/A,,Clear,80,2013-07-18 18:35:00
1:55 PM,94.1,62.6,35,30.10,10.0,SE,4.6,-,N/A,,Scattered Clouds,130,2013-07-18 18:55:00
2:15 PM,95.4,60.4,31,30.10,10.0,Calm,Calm,-,N/A,,Scattered Clouds,0,2013-07-18 19:15:00
2:35 PM,95.5,60.8,31,30.09,10.0,East,8.1,-,N/A,,Scattered Clouds,80,2013-07-18 19:35:00
2:55 PM,96.1,60.8,31,30.07,10.0,ENE,6.9,-,N/A,,Clear,60,2013-07-18 19:55:00
3:15 PM,96.6,60.6,30,30.06,10.0,SE,9.2,-,N/A,,Scattered Clouds,130,2013-07-18 20:15:00
3:35 PM,97.0,59.7,29,30.05,10.0,SE,4.6,-,N/A,,Mostly Cloudy,140,2013-07-18 20:35:00
3:55 PM,97.2,58.6,28,30.04,10.0,SE,10.4,-,N/A,,Scattered Clouds,130,2013-07-18 20:55:00
4:15 PM,97.2,57.7,27,30.03,10.0,SSE,8.1,-,N/A,,Clear,150,2013-07-18 21:15:00
5:15 PM,97.0,57.2,26,30.02,10.0,SE,9.2,-,N/A,,Clear,130,2013-07-18 22:15:00
5:35 PM,97.0,57.7,27,30.01,10.0,South,11.5,-,N/A,,Clear,170,2013-07-18 22:35:00
5:55 PM,97.0,58.5,28,30.00,10.0,SSE,5.8,-,N/A,,Clear,150,2013-07-18 22:55:00
6:15 PM,97.0,58.1,27,30.00,10.0,SSE,5.8,-,N/A,,Clear,160,2013-07-18 23:15:00
6:35 PM,96.3,57.4,27,30.00,10.0,SSE,9.2,-,N/A,,Clear,150,2013-07-18 23:35:00
6:55 PM,95.9,58.1,28,29.99,10.0,SE,9.2,-,N/A,,Clear,130,2013-07-18 23:55:00
7:15 PM,95.2,58.3,29,30.00,10.0,SE,5.8,-,N/A,,Clear,140,2013-07-19 00:15:00
7:35 PM,94.3,58.5,30,30.01,7.0,SSE,5.8,-,N/A,,Clear,150,2013-07-19 00:35:00
7:55 PM,93.2,58.6,31,30.02,10.0,SE,6.9,-,N/A,,Clear,130,2013-07-19 00:55:00
8:15 PM,91.8,60.3,35,30.02,10.0,SE,5.8,-,N/A,,Clear,130,2013-07-19 01:15:00
8:35 PM,90.3,63.1,40,30.02,10.0,SSE,4.6,-,N/A,,Clear,150,2013-07-19 01:35:00
8:55 PM,89.2,65.8,46,30.03,10.0,SSE,4.6,-,N/A,,Clear,160,2013-07-19 01:55:00
9:15 PM,88.0,69.6,54,30.03,10.0,SSE,4.6,-,N/A,,Clear,160,2013-07-19 02:15:00
9:35 PM,86.9,70.7,58,30.04,10.0,South,5.8,-,N/A,,Clear,180,2013-07-19 02:35:00
9:55 PM,85.5,70.7,61,30.04,10.0,SSE,3.5,-,N/A,,Clear,160,2013-07-19 02:55:00
10:15 PM,84.6,70.5,63,30.05,10.0,Calm,Calm,-,N/A,,Clear,0,2013-07-19 03:15:00
10:35 PM,84.2,70.7,64,30.05,10.0,South,3.5,-,N/A,,Clear,170,2013-07-19 03:35:00
10:55 PM,83.3,70.7,66,30.05,10.0,Calm,Calm,-,N/A,,Clear,0,2013-07-19 03:55:00
11:15 PM,82.4,71.1,68,30.06,10.0,Calm,Calm,-,N/A,,Clear,0,2013-07-19 04:15:00
11:35 PM,82.4,71.1,68,30.06,10.0,Calm,Calm,-,N/A,,Clear,0,2013-07-19 04:35:00
11:55 PM,81.5,71.2,71,30.06,10.0,Calm,Calm,-,N/A,,Clear,0,2013-07-19 04:55:00